Time,TemperatureF,DewpointF,PressureIn,WindDirection,WindDirectionDegrees,WindSpeedMPH,WindSpeedGustMPH,Humidity,HourlyPrecipIn,Conditions,Clouds,dailyrainin,SoftwareType,DateUTC
2013-02-22 00:00:00,51.0,39.0,-100.00,North,-999,-999.0,-999.0,64,-99.99,,,0.00,,2013-02-22 08:00:00,
2013-02-22 01:00:00,51.0,39.0,-100.00,North,-999,-999.0,-999.0,64,-99.99,,,0.00,,2013-02-22 09:00:00,
2013-02-22 02:00:00,51.0,38.0,-100.00,North,-999,-999.0,-999.0,62,-99.99,,,0.00,,2013-02-22 10:00:00,
2013-02-22 02:52:00,51.0,38.0,-100.00,North,-999,-999.0,-999.0,62,-99.99,,,0.00,,2013-02-22 10:52:00,
2013-02-22 03:00:00,50.0,38.0,-100.00,North,-999,-999.0,-999.0,61,-99.99,,,0.00,,2013-02-22 11:00:00,
2013-02-22 04:00:00,51.0,36.0,-100.00,North,-999,-999.0,-999.0,58,-99.99,,,0.00,,2013-02-22 12:00:00,
2013-02-22 05:00:00,51.0,36.0,-100.00,North,-999,-999.0,-999.0,57,-99.99,,,0.00,,2013-02-22 13:00:00,
2013-02-22 05:52:00,51.0,36.0,-100.00,North,-999,-999.0,-999.0,57,-99.99,,,0.00,,2013-02-22 13:52:00,
2013-02-22 06:00:00,52.0,34.0,-100.00,North,-999,-999.0,-999.0,50,-99.99,,,0.00,,2013-02-22 14:00:00,
2013-02-22 06:53:00,52.0,34.0,-100.00,North,-999,-999.0,-999.0,50,-99.99,,,0.00,,2013-02-22 14:53:00,
2013-02-22 07:00:00,51.0,35.0,-100.00,North,-999,-999.0,-999.0,55,-99.99,,,0.00,,2013-02-22 15:00:00,
2013-02-22 07:52:00,51.0,35.0,-100.00,North,-999,-999.0,-999.0,55,-99.99,,,0.00,,2013-02-22 15:52:00,
2013-02-22 08:00:00,53.0,34.0,-100.00,North,-999,-999.0,-999.0,48,-99.99,,,0.00,,2013-02-22 16:00:00,
2013-02-22 09:00:00,55.0,35.0,-100.00,North,-999,-999.0,-999.0,47,0.00,,,0.00,,2013-02-22 17:00:00,
2013-02-22 09:52:00,55.0,35.0,-100.00,North,-999,-999.0,-999.0,47,0.00,,,0.00,,2013-02-22 17:52:00,
2013-02-22 13:00:00,64.0,38.0,-100.00,North,-999,-999.0,-999.0,38,0.00,,,0.00,,2013-02-22 21:00:00,
2013-02-22 13:52:00,64.0,38.0,-100.00,North,-999,-999.0,-999.0,38,0.00,,,0.00,,2013-02-22 21:52:00,
2013-02-22 14:00:00,65.0,36.0,-100.00,North,-999,-999.0,-999.0,34,0.00,,,0.00,,2013-02-22 22:00:00,
2013-02-22 14:52:00,65.0,36.0,-100.00,North,-999,-999.0,-999.0,34,0.00,,,0.00,,2013-02-22 22:52:00,
2013-02-22 15:00:00,66.0,36.0,-100.00,North,-999,-999.0,-999.0,33,0.00,,,0.00,,2013-02-22 23:00:00,
2013-02-22 15:52:00,66.0,36.0,-100.00,North,-999,-999.0,-999.0,33,0.00,,,0.00,,2013-02-22 23:52:00,
2013-02-22 16:00:00,66.0,35.0,-100.00,North,-999,-999.0,-999.0,32,0.00,,,0.00,,2013-02-23 00:00:00,
2013-02-22 16:52:00,66.0,35.0,-100.00,North,-999,-999.0,-999.0,32,0.00,,,0.00,,2013-02-23 00:52:00,
2013-02-22 17:00:00,65.0,36.0,-100.00,North,-999,-999.0,-999.0,34,0.00,,,0.00,,2013-02-23 01:00:00,
2013-02-22 17:52:00,65.0,36.0,-100.00,North,-999,-999.0,-999.0,34,0.00,,,0.00,,2013-02-23 01:52:00,
2013-02-22 18:00:00,60.0,40.0,-100.00,North,-999,-999.0,-999.0,49,-99.99,,,0.00,,2013-02-23 02:00:00,
2013-02-22 18:52:00,60.0,40.0,-100.00,North,-999,-999.0,-999.0,49,-99.99,,,0.00,,2013-02-23 02:52:00,
2013-02-22 19:00:00,57.0,41.0,-100.00,North,-999,-999.0,-999.0,54,0.00,,,0.00,,2013-02-23 03:00:00,
2013-02-22 19:52:00,57.0,41.0,-100.00,North,-999,-999.0,-999.0,54,0.00,,,0.00,,2013-02-23 03:52:00,
2013-02-22 20:00:00,58.0,40.0,-100.00,North,-999,-999.0,-999.0,51,-99.99,,,0.00,,2013-02-23 04:00:00,
2013-02-22 20:52:00,58.0,40.0,-100.00,North,-999,-999.0,-999.0,51,-99.99,,,0.00,,2013-02-23 04:52:00,
2013-02-22 21:00:00,56.0,39.0,-100.00,North,-999,-999.0,-999.0,53,-99.99,,,0.00,,2013-02-23 05:00:00,
2013-02-22 22:00:00,55.0,39.0,-100.00,North,-999,-999.0,-999.0,54,-99.99,,,0.00,,2013-02-23 06:00:00,
2013-02-22 22:52:00,55.0,39.0,-100.00,North,-999,-999.0,-999.0,54,-99.99,,,0.00,,2013-02-23 06:52:00,
2013-02-22 23:00:00,55.0,39.0,-100.00,North,-999,-999.0,-999.0,56,-99.99,,,0.00,,2013-02-23 07:00:00,
2013-02-22 23:52:00,55.0,39.0,-100.00,North,-999,-999.0,-999.0,56,-99.99,,,0.00,,2013-02-23 07:52:00,